Preview of NWS' New Version of Forecast
This preview is not operational and should not be used for support decisions.

Regional Weather Roundup (RWR)

Issued by National Weather Service (NWS)

                            
000
ASUS46 KSEW 240010
RWRWA 

WASHINGTON REGIONAL WEATHER ROUNDUP
NATIONAL WEATHER SERVICE SEATTLE WA
500 PM PDT TUE APR 23 2019

NOTE:"FAIR" INDICATES FEW OR NO CLOUDS BELOW 12,000 FEET WITH NO 
SIGNIFICANT WEATHER AND/OR OBSTRUCTIONS TO VISIBILITY.

WAZ507-509-555>559-240100-
SEATTLE, TACOMA, EVERETT, AND VICINITY
  
CITY           SKY/WX    TMP DP  RH WIND       PRES   REMARKS
EVERETT        CLOUDY    50  41  71 N8        30.21F                  
6HR MIN TEMP:  48; 6HR MAX TEMP:  51;                                

BOEING FIELD   PTSUNNY   60  45  57 N9        30.19S                  
6HR MIN TEMP:  58; 6HR MAX TEMP:  63;                                

RENTON         PTSUNNY   59  48  67 NW12      30.18S                  
6HR MIN TEMP:  58; 6HR MAX TEMP:  63;                                

SEATAC AIRPORT MOSUNNY   59  45  59 W8        30.19S                  
6HR MIN TEMP:  56; 6HR MAX TEMP:  60;                                

JBLM-MCCHORD   MOSUNNY   59  51  76 W10       30.19S                  
6HR MIN TEMP:  55; 6HR MAX TEMP:  60; 6HR PCP: TRACE;                

PUYALLUP       CLOUDY    59  48  67 W8        30.19S                  
BREMERTON      CLOUDY    54  46  74 NE10      30.19S                  
6HR MIN TEMP:  54; 6HR MAX TEMP:  64;                                

JBLM-FT LEWIS  NOT AVBL                                               
TACOMA NARROWS MOSUNNY   58  44  60 VRB7G17   30.20R                  
6HR MIN TEMP:  54; 6HR MAX TEMP:  60;                                

$$
 
WAZ001-503-506-510-514-515-240100-
NORTH INTERIOR
  
CITY           SKY/WX    TMP DP  RH WIND       PRES   REMARKS
BELLINGHAM     SUNNY     57  41  55 S13       30.17F                  
6HR MIN TEMP:  52; 6HR MAX TEMP:  59;                                

FRIDAY HARBOR  SUNNY     59  38  45 SW10G17   30.18F                  
6HR MIN TEMP:  56; 6HR MAX TEMP:  60;                                

EASTSOUND      CLOUDY    54  48  82 NW6       30.17F                  
PORT ANGELES   CLOUDY    51  39  63 NW16G23   30.23F                  
6HR MIN TEMP:  48; 6HR MAX TEMP:  51;                                

EDIZ HOOK      CLOUDY    50  42  72 W17       30.23F                  
6HR MIN TEMP:  48; 6HR MAX TEMP:  54;                                

PORT TOWNSEND  CLOUDY    50  39  66 W13       30.20F                  
NAS WHIDBEY    PTSUNNY   55  41  59 W13       30.24S                  
6HR MIN TEMP:  54; 6HR MAX TEMP:  58;                                

ARLINGTON      CLOUDY    51  43  74 NW7       30.22S                  
6HR MIN TEMP:  50; 6HR MAX TEMP:  54; 6HR PCP: TRACE;                

BURLINGTON       N/A    N/A N/A N/A MISG        N/A                   
$$
 
WAZ020-022-039-040-504-511-512-240100-
SOUTHWEST INTERIOR
  
CITY           SKY/WX    TMP DP  RH WIND       PRES   REMARKS
SHELTON        MOSUNNY   59  41  51 SW17      30.17S                  
6HR MIN TEMP:  57; 6HR MAX TEMP:  61;                                

OLYMPIA        MOSUNNY   57  43  59 SW17      30.21R                  
6HR MIN TEMP:  55; 6HR MAX TEMP:  59; 6HR PCP: TRACE;                

CHEHALIS       CLOUDY    57  48  72 W8        30.22S                  
KELSO          CLOUDY    58  49  72 W8        30.22F                  
6HR MIN TEMP:  54; 6HR MAX TEMP:  60; 6HR PCP:  0.01;                

VANCOUVER      CLOUDY    61  48  62 N10G17    30.17F                  
6HR MIN TEMP:  59; 6HR MAX TEMP:  66;                                

SCAPPOOSE, OR  PTSUNNY   63  49  60 NW13G20   30.17F                  
6HR MIN TEMP:  61; 6HR MAX TEMP:  66;                                

PORTLAND, OR   CLOUDY    62  49  62 NW10      30.17F                  
6HR MIN TEMP:  60; 6HR MAX TEMP:  66;                                

$$
 
WAZ021-516-517-240100-
WASHINGTON COAST
  
CITY           SKY/WX    TMP DP  RH WIND       PRES   REMARKS
FORKS          PTSUNNY   51  36  56 W12       30.26S                  
6HR MIN TEMP:  50; 6HR MAX TEMP:  54;                                

HOQUIAM        MOSUNNY   53  40  61 W15       30.25S                  
6HR MIN TEMP:  51; 6HR MAX TEMP:  55;                                

ASTORIA, OR    CLOUDY    52  42  69 NW15      30.26S                  
6HR MIN TEMP:  51; 6HR MAX TEMP:  54; 6HR PCP: TRACE;                

$$
 
WAZ019-023-024-040-567>569-240100-
CASCADE MOUNTAINS AND COLUMBIA GORGE
  
CITY           SKY/WX    TMP DP  RH WIND       PRES   REMARKS
STAMPEDE PASS  CLOUDY    44  37  76 NW9       30.13F                  
6HR MIN TEMP:  42; 6HR MAX TEMP:  44; 6HR PCP: TRACE;                

TROUTDALE, OR  CLOUDY    64  52  64 NW6       30.16F                  
6HR MIN TEMP:  58; 6HR MAX TEMP:  65;                                

HOOD RIVER, OR CLOUDY    63  50  63 MISG      30.13F                  
THE DALLES, OR MOSUNNY   67  48  50 NW23      30.09F                  
6HR MIN TEMP:  62; 6HR MAX TEMP:  69;                                

$$

WAZ026-027-041>044-520-521-240100-
EAST SLOPES
  
CITY           SKY/WX    TMP DP  RH WIND       PRES   REMARKS
OMAK           MOSUNNY   73  30  20 NW12      29.91F                  
6HR MIN TEMP:  65; 6HR MAX TEMP:  74;                                

WENATCHEE      SUNNY     68  32  26 W17       29.99S                  
6HR MIN TEMP:  62; 6HR MAX TEMP:  70;                                

ELLENSBURG     MOSUNNY   61  38  42 NW32G41   30.05S                  
6HR MIN TEMP:  61; 6HR MAX TEMP:  65;                                

YAKIMA         MOSUNNY   70  37  29 W18       30.02S                  
6HR MIN TEMP:  64; 6HR MAX TEMP:  75;                                

SUNNYSIDE ARPT PTCLDY    71  46  41 W21       30.02R                  
6HR MIN TEMP:  63; 6HR MAX TEMP:  74;                                

YAKIMA TC      FAIR      66  40  37 N14       30.02R                  
6HR MIN TEMP:  64; 6HR MAX TEMP:  71;                                

$$

WAZ028-034-035-240100-
COLUMBIA BASIN
  
CITY           SKY/WX    TMP DP  RH WIND       PRES   REMARKS
EPHRATA        MOSUNNY   72  33  24 W14G26    29.97F                  
6HR MIN TEMP:  67; 6HR MAX TEMP:  74;                                

MOSES LAKE     SUNNY     74  40  29 W15G24    29.98F                  
6HR MIN TEMP:  67; 6HR MAX TEMP:  76;                                

PASCO          PTSUNNY   80  43  26 W16       29.99S                  
6HR MIN TEMP:  70; 6HR MAX TEMP:  81;                                

RICHLAND ARPT  MOCLDY    78  45  30 W6G17     29.99                   
6HR MIN TEMP:  68; 6HR MAX TEMP:  79;                                

HERMISTON, OR  PTSUNNY   74  41  30 W25G32    30.03F                  
6HR MIN TEMP:  70; 6HR MAX TEMP:  76;                                

$$

WAZ036>038-240100-
NORTHEAST WASHINGTON
  
CITY           SKY/WX    TMP DP  RH WIND       PRES   REMARKS
SPOKANE GEIGER PTSUNNY   65  41  41 SW23      29.98F                  
6HR MIN TEMP:  59; 6HR MAX TEMP:  67;                                

SPOKANE FELTS  MOSUNNY   68  41  37 SW16G24   29.98F                  
6HR MIN TEMP:  62; 6HR MAX TEMP:  69;                                

FAIRCHILD AFB  SUNNY     64  41  42 SW22G28   29.98F                  
6HR MIN TEMP:  59; 6HR MAX TEMP:  65; 6HR PCP: TRACE;                

COEURDALENE,ID CLOUDY    63  44  50 SW17      29.99S                  
6HR MIN TEMP:  59; 6HR MAX TEMP:  66;                                

DEER PARK      PTSUNNY   67  39  35 SW21G29   29.96F                  
6HR MIN TEMP:  59; 6HR MAX TEMP:  68;                                

$$

WAZ029>033-240100-
SOUTHEAST WASHINGTON
  
CITY           SKY/WX    TMP DP  RH WIND       PRES   REMARKS
PULLMAN        PTSUNNY   63  47  55 W14G22    30.06S                  
6HR MIN TEMP:  58; 6HR MAX TEMP:  65;                                

LEWISTON, ID   PTSUNNY   72  48  42 NW13G21   30.01S                  
6HR MIN TEMP:  62; 6HR MAX TEMP:  72; 6HR PCP: TRACE;                

WALLA WALLA    PTSUNNY   72  45  37 SW15      30.03F                  
6HR MIN TEMP:  65; 6HR MAX TEMP:  74;                                

PENDLETON, OR  PTSUNNY   67  50  54 W16G26    30.05F                  
6HR MIN TEMP:  64; 6HR MAX TEMP:  70;                                

$$